TIANMU-1 06

Last updated on Thu Jul 03 2025 00:02:22 GMT+0000 (Coordinated Universal Time)

1 55976U 23039D 25183.58868701 .00008398 00000+0 24210-3 0 9990 2 55976 97.5014 342.6266 0002523 301.5837 58.5160 15.35976718126981
UTC large
Height (km)
Speed (km/s)
/
Latitude / Longitude
Inclination (degrees)
Orbital Period (minutes)
Azimuth
Elevation
Range (km)
Doppler Factor

Next 0 passes for location: London (51.5072 / 0.1276)

Sorry there are no passes over London.